Location: Byszew
(52.1813°N, 19.2693°E)
Time: 23:22:44
(UTC+00:00)

Cosmos 2322 Rocket - Pass Details

Date: 01 July 2021
Orbit: 833 x 850 km, 71.0° (Epoch: 26 July)

Event Time Altitude Azimuth Distance (km) Brightness Sun altitude
Rises 19:46:50 0° 274° (W) 3,419 6.1 -5.1°
Reaches altitude 10° 19:50:15 10° 295° (WNW) 2,484 5.9 -5.5°
Maximum altitude 19:53:51 17° 334° (NNW) 2,041 5.6 -5.8°
Drops below altitude 10° 19:57:28 10° 14° (NNE) 2,485 5.2 -6.2°
Sets 20:00:53 0° 34° (NE) 3,420 5.6 -6.5°
